EW7084 Weather Reports


Display with metric or nautical units.
time (UTC)temp
F
wind
direction
speed
MPH
gust
MPH
rain 1hr
in
rain 24hr
in
rain mn
in
humidity
%
barometer
mb
20260901040051 66 155 0.0 0.0 0.00 0.40 0.00 93 1017.6
20260901034546 66 155 0.0 1.0 0.00 0.40 0.40 93 1017.6
20260901033037 67 155 0.0 1.0 0.00 0.40 0.40 93 1017.6
20260901031537 67 155 0.0 2.0 0.00 0.40 0.40 93 1017.6
20260901030037 68 155 0.0 1.0 0.00 0.40 0.40 93 1017.4
20260901024536 68 155 0.0 1.0 0.00 0.40 0.40 93 1017.6
20260901021535 68 155 0.0 2.0 0.02 0.40 0.40 93 1017.8
20260901020040 68 155 1.0 3.0 0.02 0.40 0.40 93 1017.9
20260901014538 68 155 1.0 5.0 0.02 0.40 0.40 93 1017.9
20260901013033 68 155 1.0 7.0 0.02 0.40 0.40 93 1018.1
20260901011533 68 155 0.0 0.0 0.00 0.38 0.38 93 1018.4
20260901010032 68 155 0.0 0.0 0.00 0.38 0.38 93 1017.8
20260901004534 68 155 0.0 0.0 0.00 0.38 0.38 93 1017.7
20260901003031 68 155 0.0 0.0 0.01 0.38 0.38 92 1017.6
20260901001532 68 155 0.0 0.0 0.01 0.38 0.38 92 1017.5
20260901000029 68 155 0.0 1.0 0.01 0.38 0.38 92 1017.7
20260831234528 68 155 0.0 2.0 0.01 0.38 0.38 92 1017.7
20260831233027 68 155 0.0 2.0 0.01 0.37 0.37 92 1017.8
20260831231525 68 155 0.0 2.0 0.01 0.37 0.37 92 1017.9
20260831230023 68 155 0.0 2.0 0.02 0.37 0.37 92 1018.1
20260831224522 68 155 0.0 2.0 0.02 0.37 0.37 92 1018.3
20260831223024 68 155 0.0 3.0 0.01 0.36 0.36 92 1018.5
20260831221519 68 155 0.0 2.0 0.03 0.36 0.36 92 1018.6
20260831220018 68 155 0.0 3.0 0.02 0.35 0.35 92 1018.7
20260831214517 68 155 0.0 2.0 0.02 0.35 0.35 92 1018.8
20260831213017 69 155 0.0 0.0 0.02 0.35 0.35 92 1018.8
20260831211517 69 155 0.0 3.0 0.01 0.33 0.33 92 1018.9
20260831210018 69 155 0.0 1.0 0.04 0.33 0.33 92 1018.8
20260831204516 69 155 1.0 3.0 0.06 0.33 0.33 92 1018.7
20260831203015 69 155 1.0 2.0 0.07 0.33 0.33 92 1018.8
20260831201514 69 155 0.0 2.0 0.07 0.32 0.32 92 1018.8
20260831200028 68 155 0.0 5.0 0.03 0.28 0.28 91 1018.9
20260831194512 68 155 0.0 3.0 0.02 0.27 0.27 91 1018.9
20260831193015 68 155 1.0 6.0 0.01 0.26 0.26 91 1019.2
20260831190007 68 157 1.0 5.0 0.01 0.25 0.25 91 1019.5
20260831184506 68 157 2.0 6.0 0.01 0.25 0.25 91 1019.6
20260831183003 67 157 1.0 5.0 0.02 0.25 0.25 91 1019.8
20260831181502 67 158 0.0 5.0 0.04 0.24 0.24 91 1020.0
20260831180105 67 158 0.0 7.0 0.06 0.24 0.24 90 1020.2
20260831174600 67 161 0.0 1.0 0.07 0.24 0.24 90 1020.3
20260831173059 67 161 0.0 3.0 0.09 0.23 0.23 89 1020.5
20260831171559 67 161 0.0 0.0 0.11 0.20 0.20 88 1020.7
20260831164622 68 161 0.0 0.0 0.17 0.17 0.17 86 1020.9
20260831163057 68 161 0.0 0.0 0.14 0.14 0.14 85 1020.9
20260831161557 68 161 0.0 6.0 0.09 0.09 0.09 84 1021.1
20260831160056 70 161 0.0 0.0 0.00 0.00 0.00 81 1021.0
20260831154603 70 161 0.0 0.0 0.00 0.00 0.00 80 1020.6
20260831153100 70 161 1.0 6.0 0.00 0.00 0.00 78 1020.7
20260831151558 70 165 0.0 0.0 0.00 0.00 0.00 79 1020.8
20260831150052 70 169 0.0 0.0 0.00 0.00 0.00 81 1020.6
20260831144652 69 171 0.0 0.0 0.00 0.00 0.00 83 1020.6
20260831143057 69 173 0.0 0.0 0.00 0.00 0.00 84 1020.7
20260831141550 69 173 0.0 0.0 0.00 0.00 0.00 84 1020.8
20260831140045 68 173 0.0 0.0 0.00 0.00 0.00 85 1020.6
20260831134545 67 94 0.0 0.0 0.00 0.00 0.00 86 1020.6
20260831133042 67 93 0.0 0.0 0.00 0.00 0.00 87 1020.9
20260831131543 66 93 0.0 0.0 0.00 0.00 0.00 88 1021.0
20260831130047 66 71 0.0 0.0 0.00 0.00 0.00 89 1021.0
20260831124541 65 61 0.0 0.0 0.00 0.00 0.00 90 1021.0
20260831123040 64 53 0.0 0.0 0.00 0.00 0.00 91 1020.9
20260831121540 64 53 0.0 0.0 0.00 0.00 0.00 90 1021.1
20260831120138 63 53 0.0 0.0 0.00 0.00 0.00 90 1021.3
20260831114538 63 53 0.0 0.0 0.00 0.00 0.00 90 1021.3
20260831113037 62 53 0.0 0.0 0.00 0.00 0.00 90 1021.1
20260831111550 62 53 0.0 0.0 0.00 0.00 0.00 89 1021.1
20260831110135 62 53 0.0 0.0 0.00 0.00 0.00 89 1020.8
20260831104549 62 53 0.0 0.0 0.00 0.00 0.00 89 1020.5
20260831103037 62 53 0.0 0.0 0.00 0.00 0.00 89 1020.5
20260831101536 62 53 0.0 0.0 0.00 0.00 0.00 89 1020.5
20260831100033 62 53 0.0 0.0 0.00 0.00 0.00 89 1020.5
20260831094532 62 53 0.0 0.0 0.00 0.00 0.00 88 1020.5
20260831093043 62 53 0.0 0.0 0.00 0.00 0.00 88 1020.8
20260831091529 62 53 0.0 0.0 0.00 0.00 0.00 88 1020.7
20260831090028 63 53 0.0 0.0 0.00 0.00 0.00 87 1020.6
20260831084529 63 53 0.0 0.0 0.00 0.00 0.00 87 1020.3
20260831083024 63 53 0.0 0.0 0.00 0.00 0.00 87 1020.4
20260831081522 64 53 0.0 0.0 0.00 0.00 0.00 87 1020.4
20260831080023 64 63 0.0 0.0 0.00 0.00 0.00 87 1020.3
20260831074521 65 63 0.0 0.0 0.00 0.00 0.00 87 1020.4
20260831073018 65 63 0.0 0.0 0.00 0.00 0.00 86 1020.4
20260831071528 65 63 0.0 0.0 0.00 0.00 0.00 86 1020.3
20260831070018 65 63 0.0 0.0 0.00 0.00 0.00 86 1020.3
20260831064514 66 63 0.0 0.0 0.00 0.00 0.00 86 1020.3
20260831063013 66 63 0.0 0.0 0.00 0.00 0.00 85 1020.4
20260831061511 66 71 0.0 0.0 0.00 0.00 0.00 85 1020.6
20260831060008 67 71 0.0 0.0 0.00 0.00 0.00 85 1020.9
20260831053016 67 71 0.0 0.0 0.00 0.00 0.00 84 1021.0
20260831051505 67 71 0.0 0.0 0.00 0.00 0.00 84 1020.9
20260831050004 67 71 0.0 0.0 0.00 0.00 0.00 84 1021.1
20260831044503 67 71 0.0 0.0 0.00 0.00 0.00 83 1021.0
20260831043003 67 71 0.0 0.0 0.00 0.00 0.00 83 1021.1